Sigil TimeFrame

111 2022-07-06 18:10:03
NameTime LeftWindow Opens
Emperor Neudeus, Controller of the Universe1d 16:122022-07-05 13:50:02
Xynak, the Arcane Master1d 10:372022-07-05 19:25:01
Lacuste of the Swarm1d 07:572022-07-05 22:05:01
Jazzmin, Maiden of Vitality1d 04:572022-07-06 01:05:01
Hackerphage, Protector of the Gateway1d 04:372022-07-06 01:25:01
Smoot the Yeti1d 01:322022-07-06 04:30:02
Dlanod, the Crazed Chancellor0d 23:472022-07-06 06:15:01
Balerion, Dragon of Dread0d 23:472022-07-06 06:15:01
Nafir, God of Desolation0d 20:372022-07-06 09:25:02
Samatha Dark-Soul0d 19:022022-07-06 11:00:02
Ancient Magus Tarkin0d 18:422022-07-06 11:20:02
Dexor, Victor of Veldara0d 17:172022-07-06 12:45:01
Banok, Demon of Insanity0d 15:522022-07-06 14:10:02
Keeper of Nature0d 15:372022-07-06 14:25:02
Vitkros, Hydra of the Deep0d 15:272022-07-06 14:35:02
Garland, The Lord Keeper0d 12:372022-07-06 17:25:01
Nessam0d 12:222022-07-06 17:40:02
Crantos, Defender of Ultimation0d 11:222022-07-06 18:40:01
Ebliss, Fallen Angel of Despair0d 10:172022-07-06 19:45:02
Crane0d 10:072022-07-06 19:55:01
Lord Varan0d 09:422022-07-06 20:20:02
Murderface0d 09:422022-07-06 20:20:02
Wanhiroeaz the Devourer0d 07:222022-07-06 22:40:01
Rillax, Twin of Wisdom0d 06:072022-07-06 23:55:02
Ganja the Stone Golem0d 04:572022-07-07 01:05:02
Villax, Twin of Strength0d 04:072022-07-07 01:55:01
Windstrike The Vile0d 03:422022-07-07 02:20:02
Varsanor, Master of Darkness0d 03:272022-07-07 02:35:02
Dreg nor, Keeper of the Infernal Essence0d 02:322022-07-07 03:30:02
Pinosis0d 01:222022-07-07 04:40:02
Lord Narada0d 00:422022-07-07 05:20:02
Freezebreed, The Frozen Manipulator0d 00:272022-07-07 05:35:02
Quiver, The Renegade0d 00:272022-07-07 05:35:02
Jorun the Blazing Swordsman0d 00:472022-07-07 06:50:02
Bloodchill the Grizzly0d 02:072022-07-07 08:10:02
Gregov, Knight of the Woods0d 02:372022-07-07 08:40:02
Sarcrina the Astral Priestess0d 04:022022-07-07 10:05:01
Rezun, Demon of Madness0d 04:372022-07-07 10:40:01
Melt Bane, The Forbidden Demon Dragon0d 04:372022-07-07 10:40:02
Tylos, The Lord Master0d 06:022022-07-07 12:05:01
Ag Nabak the Abomination0d 06:372022-07-07 12:40:02
Shadow0d 06:522022-07-07 12:55:02
Synge, The Red Dragon0d 07:172022-07-07 13:20:02
Lady Chaos, Queen of the Abyss0d 07:172022-07-07 13:20:02
Gnorb0d 07:222022-07-07 13:25:01
Threk, King of Lords0d 07:372022-07-07 13:40:01
Animated Captain0d 08:372022-07-07 14:40:01
Anvilfist0d 08:422022-07-07 14:45:01
Envar, Demon of Lunacy0d 08:422022-07-07 14:45:02
Mistress of the Sword0d 09:022022-07-07 15:05:01
Baron Mu, Dark Rider of the Undead0d 09:472022-07-07 15:50:02
Old World Drake0d 10:272022-07-07 16:30:02
Bolkor, the Holy Master0d 10:322022-07-07 16:35:02
Shayar, the Shadow Deity0d 10:422022-07-07 16:45:01
Terrance, Rebel of Rallis0d 12:372022-07-07 18:40:02
Volgan the Living Ironbark0d 13:222022-07-07 19:25:01
Brutalitar, Lord of the Underworld0d 14:022022-07-07 20:05:02
Rancid, Lord of Thugs0d 14:272022-07-07 20:30:02
Traxodon the Plaguebringer0d 14:522022-07-07 20:55:01
Tsort0d 14:572022-07-07 21:00:02
Lord Suka0d 14:572022-07-07 21:00:02
The Emerald Assassin0d 15:022022-07-07 21:05:01
Anguish0d 15:122022-07-07 21:15:02
Lord Xordam0d 16:272022-07-07 22:30:01
Viserion, the Necrodragon0d 16:322022-07-07 22:35:02
Archdevil Yirkon0d 18:572022-07-08 01:00:01
Lady Ariella0d 21:572022-07-08 04:00:02
Detox1d 00:522022-07-08 06:55:02
Akkel the Enflamed Warrior1d 02:222022-07-08 08:25:01
Hyrak, Bringer of Nightmares1d 02:522022-07-08 08:55:01
Q-SEC Commander1d 02:572022-07-08 09:00:02
Rotborn, Eater of the Dead1d 06:572022-07-08 13:00:02
Straya, the Underworld Ruler1d 08:572022-07-08 15:00:02
Holgor, the Holy Deity1d 09:072022-07-08 15:10:01
Kretok, Descendant of Nature1d 11:522022-07-08 17:55:02
Lord Sibannac1d 14:272022-07-08 20:30:01
Numerocure, The Black Messenger of Evil1d 15:222022-07-08 21:25:02
Amalgamated Apparition1d 16:272022-07-08 22:30:02
Sylvanna TorLai1d 17:122022-07-08 23:15:02
Kinark, the Kinetic Deity1d 17:122022-07-08 23:15:02
King Ashnar, Lord of the Unliving1d 19:122022-07-09 01:15:02
Sigil, Lich of Woe1d 19:372022-07-09 01:40:01
Ormsul the Putrid1d 23:022022-07-09 05:05:02
Nar Zhul, Slayer of All1d 23:222022-07-09 05:25:02
Raiyar, the Shadow Master2d 02:372022-07-09 08:40:01
Great Lord Ganeshan2d 03:422022-07-09 09:45:02
Murfax, Beast of the Caves2d 04:122022-07-09 10:15:02
Esquin, the Kinetic Master2d 05:272022-07-09 11:30:02
Nayark the Mummified Sorcerer2d 08:372022-07-09 14:40:01
Howldroid, Tormentor of the Pit2d 12:322022-07-09 18:35:01
Agnar, Astral Betrayer2d 12:372022-07-09 18:40:01
Skybrine The Inescapable2d 13:372022-07-09 19:40:02
Slashbrood, Devourer of the Blackness2d 18:172022-07-10 00:20:01
Gorganus of the Wood2d 19:172022-07-10 01:20:02
Felroc, Overseer of Hellfire3d 09:272022-07-10 15:30:02
Karvaz, Lord of Alsayic3d 09:422022-07-10 15:45:02
Grivvek, Protector of the Brood3d 14:472022-07-10 20:50:01
Crolvak, the Fire Master4d 00:272022-07-11 06:30:01
Firan, the Fire Deity4d 05:072022-07-11 11:10:01
Kro Shuk, Doomslayer4d 06:322022-07-11 12:35:02
Skarthul the Avenged4d 14:072022-07-11 20:10:02
Valzek, Harbinger of Death4d 16:272022-07-11 22:30:01
Arcon, the Arcane Deity5d 04:122022-07-12 10:15:01
Thanox, Balancer of Chaos7d 20:122022-07-15 02:15:01
Zikkir the Dark Archer399d 10:022021-06-02 20:00:01
Shaik, Servant of Arkron222d 17:272021-11-26 12:35:02
Rook, Hand of Arkron222d 12:222021-11-26 17:40:02
Beast of Cards129d 08:522022-02-27 21:10:02
Noxious Slug123d 21:372022-03-05 08:25:01
Jade Dragonite10d 15:022022-06-26 15:00:02
Zertan, The Collector5d 22:272022-07-01 07:35:01